Agat, GU

10:11 PM ChST on September 04, 2015 (GMT +1000)
Santa Rita | | Change Station
CLOSE
Current Station
Personal Weather Station
Location: Guam,
Elevation: 725 ft
Nearby Weather Stations

Elev 725 ft 13.40 °N, 144.70 °E | Updated 1 minute ago

Light Rain
Light Rain
77.9 °F
Feels Like 80 °F
N
0.0
Wind Variable Wind from North
Gusts 0.0 mph

Today
High -- | Low -- °F
--% Chance of Precip.
Yesterday
High -- | Low -- °F
Precip. -- in
6:10 AM 6:30 PM
Waning Gibbous, 60% visible
Pressure 29.82 in
Visibility 10.0 miles
Clouds Mostly Cloudy 2000 ft
Overcast 4000 ft
Heat Index 80 °F
Dew Point 75 °F
Humidity 90%
Rainfall 0.14 in
Snow Depth Not available.
UV 0.0 out of 12
Pollen Not available.
Air Quality Not available.
Flu Activity Not available.
METAR PGUM 041154Z 00000KT 10SM -RA BKN020 OVC040 27/25 A2984 RMK AO2 RAB51 SLP097 P0000 60000 70010 T02670250 10289 20267 51017 $
Pressure 29.82 in
Visibility 10.0 miles
Clouds Mostly Cloudy 2000 ft
Overcast 4000 ft
Heat Index 80 °F
Dew Point 75 °F
Humidity 90%
Rainfall 0.14 in
Snow Depth Not available.
UV 0.0 out of 12
Pollen Not available.
Air Quality Not available.
Flu Activity Not available.
METAR PGUM 041154Z 00000KT 10SM -RA BKN020 OVC040 27/25 A2984 RMK AO2 RAB51 SLP097 P0000 60000 70010 T02670250 10289 20267 51017 $

10-Day Weather Forecast

×

Almanac

Astronomy

Sep. 04, 2015 Rise Set
Actual Time
Civil Twilight
Nautical Twilight
Astronomical Twilight
Moon
Length of Visible Light
Length of Day
Tomorrow will be .
, % of the Moon is Illuminated

Today's Extremes

State Highs State Lows

Community

WunderPhotos

Upload Photos

1,852,161 photos uploaded!

WunderBlogs® & News

Nearby

Air Quality

  Air Quality AQ Index Pollutant
Not available.

Snow Depth

Station Depth Elevation

Earthquake Activity

City Distance Mag. Time & Date
Minimum magnitude displayed is 2.5.

Coastal Water Temperatures

Place Temperature

Stations

Nearby Weather Stations

Station Location Temp. Windchill Dew Point Humidity Wind Precip. Elev Updated Type